Terminal Aerodrome Forecast
Issued by NWS

Home | Current Version | Previous Version | Text Only | Print | Product List | Glossary On
Versions: 1 2 3 4 5 6 7 8 9 10 11 12 13 14 15 16 17 18 19 20
405
FTUS43 KGRR 050525
TAFJXN
TAF
KJXN 050525Z 0506/0606 01006KT P6SM VCSH OVC007
     FM050700 01004KT P6SM OVC015
     FM050800 36007KT P6SM OVC025
     FM051800 01011KT P6SM BKN080=

USA.gov is the U.S. government's official web portal to all federal, state and local government web resources and services.